Time,TemperatureF,DewpointF,PressureIn,WindDirection,WindDirectionDegrees,WindSpeedMPH,WindSpeedGustMPH,Humidity,HourlyPrecipIn,Conditions,Clouds,dailyrainin,SoftwareType,DateUTC
2013-01-26 00:03:00,20.1,17.0,30.23,North,349,7.2,7.2,88,0.00,,CLR,0.00,VWS V14.01,2013-01-26 06:03:00,
2013-01-26 00:08:00,20.1,17.0,30.23,West,264,6.3,7.6,88,0.00,,CLR,0.00,VWS V14.01,2013-01-26 06:08:00,
2013-01-26 00:13:00,19.9,16.8,30.23,NNW,338,5.4,5.8,88,0.00,,CLR,0.00,VWS V14.01,2013-01-26 06:13:00,
2013-01-26 00:18:00,19.8,16.7,30.23,North,353,7.6,14.1,88,0.00,,CLR,0.00,VWS V14.01,2013-01-26 06:18:00,
2013-01-26 00:23:00,19.8,16.7,30.23,NW,321,8.3,8.3,88,0.00,,CLR,0.00,VWS V14.01,2013-01-26 06:23:00,
2013-01-26 00:28:00,19.6,16.5,30.23,North,353,6.3,10.1,88,0.00,,CLR,0.00,VWS V14.01,2013-01-26 06:28:00,
2013-01-26 00:33:00,19.4,16.3,30.23,WNW,285,5.8,12.3,88,0.00,,CLR,0.00,VWS V14.01,2013-01-26 06:33:00,
2013-01-26 00:38:00,19.2,16.1,30.23,NW,310,5.4,10.1,88,0.00,,CLR,0.00,VWS V14.01,2013-01-26 06:38:00,
2013-01-26 00:43:00,19.2,16.1,30.23,WNW,297,6.3,14.5,88,0.00,,CLR,0.00,VWS V14.01,2013-01-26 06:43:00,
2013-01-26 00:48:00,19.0,15.9,30.23,North,353,5.8,11.0,88,0.00,,CLR,0.00,VWS V14.01,2013-01-26 06:48:00,
2013-01-26 00:53:00,18.9,15.8,30.23,North,350,5.8,10.5,88,0.00,,CLR,0.00,VWS V14.01,2013-01-26 06:53:00,
2013-01-26 00:59:00,18.7,15.6,30.23,WNW,299,5.8,13.6,88,0.00,,CLR,0.00,VWS V14.01,2013-01-26 06:59:00,
2013-01-26 01:04:00,18.7,15.6,30.23,NNW,343,15.9,15.9,88,0.00,,CLR,0.00,VWS V14.01,2013-01-26 07:04:00,
2013-01-26 01:09:00,18.5,15.4,30.23,North,349,8.3,13.2,88,0.00,,CLR,0.00,VWS V14.01,2013-01-26 07:09:00,
2013-01-26 01:14:00,18.3,15.2,30.23,North,357,6.3,11.0,88,0.00,,CLR,0.00,VWS V14.01,2013-01-26 07:14:00,
2013-01-26 01:19:00,18.3,15.2,30.23,NNW,344,3.6,10.5,88,0.00,,CLR,0.00,VWS V14.01,2013-01-26 07:19:00,
2013-01-26 01:24:00,18.1,15.1,30.23,NNW,328,8.7,10.1,88,0.00,,CLR,0.00,VWS V14.01,2013-01-26 07:24:00,
2013-01-26 01:29:00,18.0,14.9,30.23,North,353,7.6,10.5,88,0.00,,CLR,0.00,VWS V14.01,2013-01-26 07:29:00,
2013-01-26 01:34:00,17.8,14.7,30.23,NNW,330,11.9,11.9,88,0.00,,CLR,0.00,VWS V14.01,2013-01-26 07:34:00,
2013-01-26 01:39:00,17.6,15.4,30.23,NNW,345,7.6,11.0,91,0.00,,CLR,0.00,VWS V14.01,2013-01-26 07:39:00,
2013-01-26 01:44:00,17.6,15.4,30.23,NNW,343,4.0,7.2,91,0.00,,CLR,0.00,VWS V14.01,2013-01-26 07:44:00,
2013-01-26 01:49:00,17.4,15.2,30.23,WNW,288,3.6,8.1,91,0.00,,CLR,0.00,VWS V14.01,2013-01-26 07:49:00,
2013-01-26 01:54:00,17.4,15.2,30.23,NNW,341,5.8,10.1,91,0.00,,CLR,0.00,VWS V14.01,2013-01-26 07:54:00,
2013-01-26 01:59:00,17.2,15.1,30.26,NW,315,5.4,8.1,91,0.00,,CLR,0.00,VWS V14.01,2013-01-26 07:59:00,
2013-01-26 02:05:00,17.1,14.9,30.26,NNE,12,4.9,12.3,91,0.00,,CLR,0.00,VWS V14.01,2013-01-26 08:05:00,
2013-01-26 02:10:00,16.9,14.7,30.26,NW,326,6.7,8.3,91,0.00,,CLR,0.00,VWS V14.01,2013-01-26 08:10:00,
2013-01-26 02:15:00,16.9,14.7,30.26,NNW,330,4.0,8.7,91,0.00,,CLR,0.00,VWS V14.01,2013-01-26 08:15:00,
2013-01-26 02:20:00,16.7,14.5,30.26,NNW,339,5.8,8.7,91,0.00,,CLR,0.00,VWS V14.01,2013-01-26 08:20:00,
2013-01-26 02:25:00,16.5,14.4,30.26,NW,309,4.0,10.1,91,0.00,,CLR,0.00,VWS V14.01,2013-01-26 08:25:00,
2013-01-26 02:30:00,16.3,14.2,30.23,NNW,341,6.3,6.3,91,0.00,,CLR,0.00,VWS V14.01,2013-01-26 08:30:00,
2013-01-26 02:35:00,16.2,14.0,30.23,NW,323,8.1,8.1,91,0.00,,CLR,0.00,VWS V14.01,2013-01-26 08:35:00,
2013-01-26 02:40:00,16.2,14.0,30.23,NW,311,3.6,8.7,91,0.00,,CLR,0.00,VWS V14.01,2013-01-26 08:40:00,
2013-01-26 02:45:00,16.0,13.8,30.26,North,357,6.3,8.7,91,0.00,,CLR,0.00,VWS V14.01,2013-01-26 08:45:00,
2013-01-26 02:50:00,16.0,13.8,30.26,NNW,344,8.3,8.3,91,0.00,,CLR,0.00,VWS V14.01,2013-01-26 08:50:00,
2013-01-26 02:55:00,16.0,13.8,30.26,NNE,13,5.4,5.4,91,0.00,,CLR,0.00,VWS V14.01,2013-01-26 08:55:00,
2013-01-26 03:00:00,15.8,13.6,30.26,NW,310,8.1,8.1,91,0.00,,CLR,0.00,VWS V14.01,2013-01-26 09:00:00,
2013-01-26 03:05:00,15.8,13.6,30.26,North,9,8.3,10.5,91,0.00,,CLR,0.00,VWS V14.01,2013-01-26 09:05:00,
2013-01-26 03:11:00,15.8,13.6,30.26,North,353,5.8,5.8,91,0.00,,CLR,0.00,VWS V14.01,2013-01-26 09:11:00,
2013-01-26 03:16:00,15.8,13.6,30.26,North,357,4.0,4.0,91,0.00,,CLR,0.00,VWS V14.01,2013-01-26 09:16:00,
2013-01-26 03:21:00,15.6,13.5,30.26,NNW,329,7.6,10.1,91,0.00,,CLR,0.00,VWS V14.01,2013-01-26 09:21:00,
2013-01-26 03:26:00,15.6,13.5,30.26,NNW,338,7.6,8.7,91,0.00,,CLR,0.00,VWS V14.01,2013-01-26 09:26:00,
2013-01-26 03:31:00,15.4,13.3,30.26,NW,322,5.8,5.8,91,0.00,,CLR,0.00,VWS V14.01,2013-01-26 09:31:00,
2013-01-26 03:36:00,15.4,13.3,30.26,NNE,16,8.3,10.5,91,0.00,,CLR,0.00,VWS V14.01,2013-01-26 09:36:00,
2013-01-26 03:41:00,15.3,13.1,30.26,North,0,4.0,5.8,91,0.00,,CLR,0.00,VWS V14.01,2013-01-26 09:41:00,
2013-01-26 03:46:00,15.3,13.1,30.26,North,357,5.8,8.7,91,0.00,,CLR,0.00,VWS V14.01,2013-01-26 09:46:00,
2013-01-26 03:51:00,15.1,12.9,30.26,North,357,5.8,6.3,91,0.00,,CLR,0.00,VWS V14.01,2013-01-26 09:51:00,
2013-01-26 03:56:00,15.1,12.9,30.26,North,0,3.1,4.0,91,0.00,,CLR,0.00,VWS V14.01,2013-01-26 09:56:00,
2013-01-26 04:01:00,14.9,12.8,30.26,North,353,4.0,5.8,91,0.00,,CLR,0.00,VWS V14.01,2013-01-26 10:01:00,
2013-01-26 04:06:00,14.9,12.8,30.26,North,350,5.8,8.7,91,0.00,,CLR,0.00,VWS V14.01,2013-01-26 10:06:00,
2013-01-26 04:11:00,14.9,12.8,30.26,North,353,3.1,4.9,91,0.00,,CLR,0.00,VWS V14.01,2013-01-26 10:11:00,
2013-01-26 04:16:00,14.9,12.8,30.29,NNW,340,2.7,4.5,91,0.00,,CLR,0.00,VWS V14.01,2013-01-26 10:16:00,
2013-01-26 04:21:00,14.9,12.8,30.29,NW,321,2.7,5.8,91,0.00,,CLR,0.00,VWS V14.01,2013-01-26 10:21:00,
2013-01-26 04:27:00,14.7,12.6,30.29,NNW,329,5.4,5.8,91,0.00,,CLR,0.00,VWS V14.01,2013-01-26 10:27:00,
2013-01-26 04:32:00,14.5,12.4,30.29,NNW,344,4.0,4.0,91,0.00,,CLR,0.00,VWS V14.01,2013-01-26 10:32:00,
2013-01-26 04:37:00,14.5,12.4,30.29,NNW,327,0.0,0.0,91,0.00,,CLR,0.00,VWS V14.01,2013-01-26 10:37:00,
2013-01-26 04:42:00,14.4,12.2,30.29,WNW,299,5.4,5.4,91,0.00,,CLR,0.00,VWS V14.01,2013-01-26 10:42:00,
2013-01-26 04:47:00,14.2,12.0,30.29,West,281,3.1,3.1,91,0.00,,CLR,0.00,VWS V14.01,2013-01-26 10:47:00,
2013-01-26 04:52:00,14.2,12.0,30.29,West,270,0.0,0.0,91,0.00,,CLR,0.00,VWS V14.01,2013-01-26 10:52:00,
2013-01-26 04:57:00,13.8,12.5,30.29,NNW,331,0.0,0.0,94,0.00,,CLR,0.00,VWS V14.01,2013-01-26 10:57:00,
2013-01-26 05:02:00,13.8,12.5,30.32,NNW,333,8.1,8.1,94,0.00,,CLR,0.00,VWS V14.01,2013-01-26 11:02:00,
2013-01-26 05:07:00,13.6,12.4,30.32,NNW,335,4.0,4.9,94,0.00,,CLR,0.00,VWS V14.01,2013-01-26 11:07:00,
2013-01-26 05:12:00,13.6,12.4,30.32,NW,314,4.0,6.3,94,0.00,,CLR,0.00,VWS V14.01,2013-01-26 11:12:00,
2013-01-26 05:17:00,13.5,12.2,30.32,NW,306,0.0,0.0,94,0.00,,CLR,0.00,VWS V14.01,2013-01-26 11:17:00,
2013-01-26 05:22:00,13.5,12.2,30.32,NNW,328,0.0,0.0,94,0.00,,CLR,0.00,VWS V14.01,2013-01-26 11:22:00,
2013-01-26 05:27:00,13.3,12.0,30.32,NNW,338,0.0,0.0,94,0.00,,CLR,0.00,VWS V14.01,2013-01-26 11:27:00,
2013-01-26 05:32:00,13.1,11.8,30.32,NNW,345,0.0,2.2,94,0.00,,CLR,0.00,VWS V14.01,2013-01-26 11:32:00,
2013-01-26 05:37:00,12.9,11.6,30.32,NNW,340,4.0,5.4,94,0.00,,CLR,0.00,VWS V14.01,2013-01-26 11:37:00,
2013-01-26 05:42:00,12.9,11.6,30.32,North,8,0.0,3.6,94,0.00,,CLR,0.00,VWS V14.01,2013-01-26 11:42:00,
2013-01-26 05:47:00,12.9,11.6,30.32,NNW,344,2.7,5.4,94,0.00,,CLR,0.00,VWS V14.01,2013-01-26 11:47:00,
2013-01-26 05:52:00,12.7,11.5,30.32,North,357,4.5,4.5,94,0.00,,CLR,0.00,VWS V14.01,2013-01-26 11:52:00,
2013-01-26 05:57:00,12.7,11.5,30.32,North,6,2.7,5.8,94,0.00,,CLR,0.00,VWS V14.01,2013-01-26 11:57:00,
2013-01-26 06:02:00,12.7,11.5,30.32,North,0,3.1,5.8,94,0.00,,CLR,0.00,VWS V14.01,2013-01-26 12:02:00,
2013-01-26 06:07:00,12.7,11.5,30.32,North,353,4.0,4.0,94,0.00,,CLR,0.00,VWS V14.01,2013-01-26 12:07:00,
2013-01-26 06:12:00,12.7,11.5,30.32,NNW,329,2.2,2.2,94,0.00,,CLR,0.00,VWS V14.01,2013-01-26 12:12:00,
2013-01-26 06:17:00,12.6,11.3,30.35,NNW,330,3.1,4.0,94,0.00,,CLR,0.00,VWS V14.01,2013-01-26 12:17:00,
2013-01-26 06:22:00,12.6,11.3,30.35,NNW,330,4.0,5.4,94,0.00,,CLR,0.00,VWS V14.01,2013-01-26 12:22:00,
2013-01-26 06:27:00,12.4,11.1,30.35,North,357,0.0,3.6,94,0.00,,CLR,0.00,VWS V14.01,2013-01-26 12:27:00,
2013-01-26 06:32:00,12.2,10.9,30.35,North,10,0.0,0.0,94,0.00,,CLR,0.00,VWS V14.01,2013-01-26 12:32:00,
2013-01-26 06:37:00,12.0,10.8,30.35,NNW,345,0.0,0.0,94,0.00,,CLR,0.00,VWS V14.01,2013-01-26 12:37:00,
2013-01-26 06:43:00,12.0,10.8,30.35,NNW,345,0.0,0.0,94,0.00,,CLR,0.00,VWS V14.01,2013-01-26 12:43:00,
2013-01-26 06:48:00,12.0,10.8,30.35,NNW,348,0.0,0.0,94,0.00,,CLR,0.00,VWS V14.01,2013-01-26 12:48:00,
2013-01-26 06:53:00,12.0,10.8,30.35,North,357,0.0,0.0,94,0.00,,CLR,0.00,VWS V14.01,2013-01-26 12:53:00,
2013-01-26 06:58:00,11.8,10.6,30.35,North,353,0.0,0.0,94,0.00,,CLR,0.00,VWS V14.01,2013-01-26 12:58:00,
2013-01-26 07:03:00,12.0,10.8,30.35,North,353,0.0,0.0,94,0.00,,CLR,0.00,VWS V14.01,2013-01-26 13:03:00,
2013-01-26 07:08:00,11.8,10.6,30.35,North,353,0.0,0.0,94,0.00,,CLR,0.00,VWS V14.01,2013-01-26 13:08:00,
2013-01-26 07:13:00,11.8,10.6,30.35,NNW,345,0.0,0.0,94,0.00,,CLR,0.00,VWS V14.01,2013-01-26 13:13:00,
2013-01-26 07:18:00,11.7,10.4,30.35,North,353,0.0,0.0,94,0.00,,CLR,0.00,VWS V14.01,2013-01-26 13:18:00,
2013-01-26 07:23:00,11.7,10.4,30.35,NNW,346,0.0,0.0,94,0.00,,CLR,0.00,VWS V14.01,2013-01-26 13:23:00,
2013-01-26 07:28:00,11.7,10.4,30.35,NNW,341,0.0,0.0,94,0.00,,CLR,0.00,VWS V14.01,2013-01-26 13:28:00,
2013-01-26 07:33:00,11.7,10.4,30.35,NNW,336,0.0,0.0,94,0.00,,CLR,0.00,VWS V14.01,2013-01-26 13:33:00,
2013-01-26 07:38:00,11.8,10.6,30.35,North,349,0.0,0.0,94,0.00,,CLR,0.00,VWS V14.01,2013-01-26 13:38:00,
2013-01-26 07:43:00,12.0,10.8,30.35,North,0,4.9,4.9,94,0.00,,CLR,0.00,VWS V14.01,2013-01-26 13:43:00,
2013-01-26 07:49:00,12.2,10.9,30.35,NNW,344,2.7,5.4,94,0.00,,CLR,0.00,VWS V14.01,2013-01-26 13:49:00,
2013-01-26 07:54:00,12.6,11.3,30.35,NNW,348,0.0,5.8,94,0.00,,CLR,0.00,VWS V14.01,2013-01-26 13:54:00,
2013-01-26 07:59:00,12.7,11.5,30.35,NNW,342,4.0,4.9,94,0.00,,CLR,0.00,VWS V14.01,2013-01-26 13:59:00,
2013-01-26 08:04:00,12.9,11.6,30.35,North,353,3.1,4.0,94,0.00,,CLR,0.00,VWS V14.01,2013-01-26 14:04:00,
2013-01-26 08:09:00,13.1,11.8,30.35,NE,42,4.0,6.3,94,0.00,,CLR,0.00,VWS V14.01,2013-01-26 14:09:00,
2013-01-26 08:14:00,13.5,12.2,30.35,NNE,14,2.7,5.8,94,0.00,,CLR,0.00,VWS V14.01,2013-01-26 14:14:00,
2013-01-26 08:19:00,13.6,12.4,30.35,NW,324,0.0,5.8,94,0.00,,CLR,0.00,VWS V14.01,2013-01-26 14:19:00,
2013-01-26 08:24:00,13.8,12.5,30.35,North,353,4.0,6.3,94,0.00,,CLR,0.00,VWS V14.01,2013-01-26 14:24:00,
2013-01-26 08:29:00,14.2,12.0,30.38,North,11,3.6,6.3,91,0.00,,CLR,0.00,VWS V14.01,2013-01-26 14:29:00,
2013-01-26 08:34:00,14.4,12.2,30.38,NNE,33,3.1,5.8,91,0.00,,CLR,0.00,VWS V14.01,2013-01-26 14:34:00,
2013-01-26 08:39:00,14.4,12.2,30.38,NNE,12,2.7,6.3,91,0.00,,CLR,0.00,VWS V14.01,2013-01-26 14:39:00,
2013-01-26 08:44:00,14.7,12.6,30.38,NNE,26,2.7,6.3,91,0.00,,CLR,0.00,VWS V14.01,2013-01-26 14:44:00,
2013-01-26 08:50:00,15.1,12.9,30.38,NNE,28,2.7,8.7,91,0.00,,CLR,0.00,VWS V14.01,2013-01-26 14:50:00,
2013-01-26 08:55:00,15.4,13.3,30.38,North,11,4.5,6.3,91,0.00,,CLR,0.00,VWS V14.01,2013-01-26 14:55:00,
2013-01-26 09:00:00,15.4,13.3,30.35,NE,41,2.2,7.6,91,0.00,,CLR,0.00,VWS V14.01,2013-01-26 15:00:00,
2013-01-26 09:05:00,15.8,13.6,30.35,North,0,5.4,5.8,91,0.00,,CLR,0.00,VWS V14.01,2013-01-26 15:05:00,
2013-01-26 09:10:00,16.3,14.2,30.35,NNW,340,7.6,7.6,91,0.00,,CLR,0.00,VWS V14.01,2013-01-26 15:10:00,
2013-01-26 09:15:00,16.9,14.7,30.38,NNW,337,4.0,4.9,91,0.00,,CLR,0.00,VWS V14.01,2013-01-26 15:15:00,
2013-01-26 09:20:00,17.6,15.4,30.38,NE,39,5.8,5.8,91,0.00,,CLR,0.00,VWS V14.01,2013-01-26 15:20:00,
2013-01-26 09:25:00,18.0,14.9,30.38,North,0,5.4,6.7,88,0.00,,CLR,0.00,VWS V14.01,2013-01-26 15:25:00,
2013-01-26 09:30:00,18.5,15.4,30.38,NNW,343,3.1,5.4,88,0.00,,CLR,0.00,VWS V14.01,2013-01-26 15:30:00,
2013-01-26 09:35:00,18.9,15.8,30.38,NE,54,4.9,6.3,88,0.00,,CLR,0.00,VWS V14.01,2013-01-26 15:35:00,
2013-01-26 09:40:00,19.0,15.9,30.38,North,7,2.7,4.0,88,0.00,,CLR,0.00,VWS V14.01,2013-01-26 15:40:00,
2013-01-26 09:45:00,19.6,16.5,30.38,East,84,2.7,3.1,88,0.00,,CLR,0.00,VWS V14.01,2013-01-26 15:45:00,
2013-01-26 09:50:00,20.3,17.2,30.38,NNE,20,0.0,2.2,88,0.00,,CLR,0.00,VWS V14.01,2013-01-26 15:50:00,
2013-01-26 09:55:00,20.8,17.7,30.38,North,9,0.0,3.1,88,0.00,,CLR,0.00,VWS V14.01,2013-01-26 15:55:00,
2013-01-26 10:00:00,20.8,17.7,30.38,NNW,342,0.0,0.0,88,0.00,,CLR,0.00,VWS V14.01,2013-01-26 16:00:00,
2013-01-26 10:05:00,21.0,17.9,30.38,East,89,0.0,0.0,88,0.00,,CLR,0.00,VWS V14.01,2013-01-26 16:05:00,
2013-01-26 10:11:00,21.2,18.1,30.38,ESE,117,0.0,0.0,88,0.00,,CLR,0.00,VWS V14.01,2013-01-26 16:11:00,
2013-01-26 10:16:00,21.2,18.1,30.38,NE,50,5.4,5.4,88,0.00,,CLR,0.00,VWS V14.01,2013-01-26 16:16:00,
2013-01-26 10:21:00,21.6,18.4,30.38,NE,36,0.0,3.6,88,0.00,,CLR,0.00,VWS V14.01,2013-01-26 16:21:00,
2013-01-26 10:26:00,21.9,18.8,30.38,NW,307,0.0,0.0,88,0.00,,CLR,0.00,VWS V14.01,2013-01-26 16:26:00,
2013-01-26 10:31:00,22.1,19.0,30.41,NNE,23,0.0,0.0,88,0.00,,CLR,0.00,VWS V14.01,2013-01-26 16:31:00,
2013-01-26 10:36:00,22.3,19.1,30.41,ENE,72,3.1,3.1,88,0.00,,CLR,0.00,VWS V14.01,2013-01-26 16:36:00,
2013-01-26 10:41:00,22.6,19.5,30.41,NE,52,0.0,2.7,88,0.00,,CLR,0.00,VWS V14.01,2013-01-26 16:41:00,
2013-01-26 10:46:00,23.0,19.9,30.41,NNE,31,0.0,0.0,88,0.00,,CLR,0.00,VWS V14.01,2013-01-26 16:46:00,
2013-01-26 10:51:00,23.5,19.4,30.41,NE,52,0.0,4.0,84,0.00,,CLR,0.00,VWS V14.01,2013-01-26 16:51:00,
2013-01-26 10:56:00,24.3,20.1,30.41,NNE,31,0.0,0.0,84,0.00,,CLR,0.00,VWS V14.01,2013-01-26 16:56:00,
2013-01-26 11:01:00,24.4,20.3,30.38,North,353,0.0,0.0,84,0.00,,CLR,0.00,VWS V14.01,2013-01-26 17:01:00,
2013-01-26 11:06:00,25.2,21.0,30.38,NNW,328,4.5,4.5,84,0.00,,CLR,0.00,VWS V14.01,2013-01-26 17:06:00,
2013-01-26 11:11:00,25.3,21.2,30.38,WNW,290,0.0,0.0,84,0.00,,CLR,0.00,VWS V14.01,2013-01-26 17:11:00,
2013-01-26 11:16:00,25.7,21.5,30.41,West,259,0.0,0.0,84,0.00,,CLR,0.00,VWS V14.01,2013-01-26 17:16:00,
2013-01-26 11:22:00,26.1,21.9,30.41,South,191,0.0,3.1,84,0.00,,CLR,0.00,VWS V14.01,2013-01-26 17:22:00,
2013-01-26 11:27:00,26.4,22.2,30.41,SSW,194,2.7,4.9,84,0.00,,CLR,0.00,VWS V14.01,2013-01-26 17:27:00,
2013-01-26 11:32:00,26.4,22.2,30.41,South,187,0.0,5.4,84,0.00,,CLR,0.00,VWS V14.01,2013-01-26 17:32:00,
2013-01-26 11:37:00,26.8,21.6,30.41,SW,229,3.1,5.8,80,0.00,,CLR,0.00,VWS V14.01,2013-01-26 17:37:00,
2013-01-26 11:43:00,27.1,22.0,30.41,South,190,3.6,3.6,80,0.00,,CLR,0.00,VWS V14.01,2013-01-26 17:43:00,
2013-01-26 11:48:00,27.3,25.0,30.41,South,181,0.0,4.0,91,0.00,,CLR,0.00,VWS V14.01,2013-01-26 17:48:00,
2013-01-26 11:53:00,27.5,25.2,30.41,South,176,0.0,5.4,91,0.00,,CLR,0.00,VWS V14.01,2013-01-26 17:53:00,
2013-01-26 11:58:00,27.7,25.4,30.41,WSW,257,3.6,4.0,91,0.00,,CLR,0.00,VWS V14.01,2013-01-26 17:58:00,
2013-01-26 12:04:00,28.2,25.9,30.41,SSE,150,0.0,5.8,91,0.00,,CLR,0.00,VWS V14.01,2013-01-26 18:04:00,
2013-01-26 12:09:00,28.0,25.8,30.41,South,175,5.4,5.8,91,0.00,,CLR,0.00,VWS V14.01,2013-01-26 18:09:00,
2013-01-26 12:14:00,28.4,26.1,30.41,SSW,204,3.1,4.5,91,0.00,,CLR,0.00,VWS V14.01,2013-01-26 18:14:00,
2013-01-26 12:19:00,28.6,25.4,30.38,SSE,151,3.1,5.8,88,0.00,,CLR,0.00,VWS V14.01,2013-01-26 18:19:00,
2013-01-26 12:24:00,28.6,25.4,30.38,SSE,150,4.0,5.4,88,0.00,,CLR,0.00,VWS V14.01,2013-01-26 18:24:00,
2013-01-26 12:29:00,28.8,25.5,30.38,SSW,196,4.0,6.3,88,0.00,,CLR,0.00,VWS V14.01,2013-01-26 18:29:00,
2013-01-26 12:34:00,28.8,25.5,30.38,SE,126,4.9,5.8,88,0.00,,CLR,0.00,VWS V14.01,2013-01-26 18:34:00,
2013-01-26 12:39:00,29.1,25.9,30.38,SE,133,3.1,6.3,88,0.00,,CLR,0.00,VWS V14.01,2013-01-26 18:39:00,
2013-01-26 12:45:00,29.1,25.9,30.38,SSW,205,3.6,6.3,88,0.00,,CLR,0.00,VWS V14.01,2013-01-26 18:45:00,
2013-01-26 12:50:00,29.3,26.1,30.38,SW,235,0.0,4.0,88,0.00,,CLR,0.00,VWS V14.01,2013-01-26 18:50:00,
2013-01-26 12:55:00,30.2,26.9,30.38,SSE,158,4.0,4.5,88,0.00,,CLR,0.00,VWS V14.01,2013-01-26 18:55:00,
2013-01-26 13:00:00,30.2,26.9,30.35,SSE,165,0.0,0.0,88,0.00,,CLR,0.00,VWS V14.01,2013-01-26 19:00:00,
2013-01-26 13:05:00,30.4,27.1,30.35,SSE,166,3.6,3.6,88,0.00,,CLR,0.00,VWS V14.01,2013-01-26 19:05:00,
2013-01-26 13:10:00,30.2,26.9,30.35,SE,130,4.0,6.3,88,0.00,,CLR,0.00,VWS V14.01,2013-01-26 19:10:00,
2013-01-26 13:15:00,30.9,27.6,30.35,SE,132,3.1,5.4,88,0.00,,CLR,0.00,VWS V14.01,2013-01-26 19:15:00,
2013-01-26 13:21:00,30.9,27.6,30.35,South,179,0.0,5.4,88,0.00,,CLR,0.00,VWS V14.01,2013-01-26 19:21:00,
2013-01-26 13:26:00,31.1,27.8,30.35,SSE,157,0.0,4.9,88,0.00,,CLR,0.00,VWS V14.01,2013-01-26 19:26:00,
2013-01-26 13:31:00,31.1,27.8,30.35,SSE,153,2.7,3.6,88,0.00,,CLR,0.00,VWS V14.01,2013-01-26 19:31:00,
2013-01-26 13:36:00,31.5,28.2,30.35,SSW,202,0.0,0.0,88,0.00,,CLR,0.00,VWS V14.01,2013-01-26 19:36:00,
2013-01-26 13:41:00,32.0,28.7,30.35,SSE,165,2.7,2.7,88,0.00,,CLR,0.00,VWS V14.01,2013-01-26 19:41:00,
2013-01-26 13:46:00,32.2,28.9,30.35,East,95,0.0,3.6,88,0.00,,CLR,0.00,VWS V14.01,2013-01-26 19:46:00,
2013-01-26 13:51:00,32.5,29.2,30.35,SW,223,2.7,3.6,88,0.00,,CLR,0.00,VWS V14.01,2013-01-26 19:51:00,
2013-01-26 13:57:00,32.5,29.2,30.35,South,178,3.6,4.0,88,0.00,,CLR,0.00,VWS V14.01,2013-01-26 19:57:00,
2013-01-26 14:02:00,32.2,28.9,30.35,SW,214,2.2,4.0,88,0.00,,CLR,0.00,VWS V14.01,2013-01-26 20:02:00,
2013-01-26 14:07:00,32.7,29.4,30.35,South,177,0.0,0.0,88,0.00,,CLR,0.00,VWS V14.01,2013-01-26 20:07:00,
2013-01-26 14:12:00,32.9,29.6,30.35,WSW,250,3.6,4.0,88,0.00,,CLR,0.00,VWS V14.01,2013-01-26 20:12:00,
2013-01-26 14:18:00,33.1,29.8,30.35,SW,233,0.0,0.0,88,0.00,,CLR,0.00,VWS V14.01,2013-01-26 20:18:00,
2013-01-26 14:23:00,33.3,30.0,30.35,SSW,213,4.0,4.9,88,0.00,,CLR,0.00,VWS V14.01,2013-01-26 20:23:00,
2013-01-26 14:30:00,33.3,30.0,30.35,SE,130,4.0,5.8,88,0.00,,CLR,0.00,VWS V14.01,2013-01-26 20:30:00,
2013-01-26 14:36:00,33.3,30.0,30.35,SSE,162,0.0,0.0,88,0.00,,CLR,0.00,VWS V14.01,2013-01-26 20:36:00,
2013-01-26 14:41:00,33.4,30.1,30.35,SE,140,0.0,2.7,88,0.00,,CLR,0.00,VWS V14.01,2013-01-26 20:41:00,
2013-01-26 14:46:00,33.8,30.5,30.35,SSW,193,3.6,3.6,88,0.00,,CLR,0.00,VWS V14.01,2013-01-26 20:46:00,
2013-01-26 14:51:00,33.8,30.5,30.35,SSW,213,3.6,4.9,88,0.00,,CLR,0.00,VWS V14.01,2013-01-26 20:51:00,
2013-01-26 14:56:00,33.4,30.1,30.35,SSW,192,3.6,3.6,88,0.00,,CLR,0.00,VWS V14.01,2013-01-26 20:56:00,
2013-01-26 15:01:00,33.3,30.0,30.35,SSW,196,3.1,6.3,88,0.00,,CLR,0.00,VWS V14.01,2013-01-26 21:01:00,
2013-01-26 15:06:00,32.9,29.6,30.35,SSW,201,3.6,5.4,88,0.00,,CLR,0.00,VWS V14.01,2013-01-26 21:06:00,
2013-01-26 15:11:00,32.7,29.4,30.35,SW,226,2.7,4.9,88,0.00,,CLR,0.00,VWS V14.01,2013-01-26 21:11:00,
2013-01-26 15:16:00,33.1,29.8,30.35,SSE,153,3.6,5.4,88,0.00,,CLR,0.00,VWS V14.01,2013-01-26 21:16:00,
2013-01-26 15:21:00,32.7,29.4,30.35,SE,146,3.1,4.0,88,0.00,,CLR,0.00,VWS V14.01,2013-01-26 21:21:00,
2013-01-26 15:26:00,32.5,29.2,30.35,SSE,155,0.0,0.0,88,0.00,,CLR,0.00,VWS V14.01,2013-01-26 21:26:00,
2013-01-26 15:32:00,32.7,29.4,30.35,ESE,120,3.1,3.6,88,0.00,,CLR,0.00,VWS V14.01,2013-01-26 21:32:00,
2013-01-26 15:37:00,32.7,29.4,30.35,NE,53,3.1,4.0,88,0.00,,CLR,0.00,VWS V14.01,2013-01-26 21:37:00,
2013-01-26 15:42:00,32.4,29.1,30.35,ENE,68,2.7,4.9,88,0.00,,CLR,0.00,VWS V14.01,2013-01-26 21:42:00,
2013-01-26 15:47:00,32.2,28.9,30.35,South,169,0.0,0.0,88,0.00,,CLR,0.00,VWS V14.01,2013-01-26 21:47:00,
2013-01-26 15:52:00,31.6,28.4,30.35,SE,131,0.0,4.0,88,0.00,,CLR,0.00,VWS V14.01,2013-01-26 21:52:00,
2013-01-26 15:57:00,31.5,28.2,30.35,ESE,111,3.1,3.6,88,0.00,,CLR,0.00,VWS V14.01,2013-01-26 21:57:00,
2013-01-26 16:02:00,31.1,27.8,30.35,SSE,157,0.0,2.7,88,0.00,,CLR,0.00,VWS V14.01,2013-01-26 22:02:00,
2013-01-26 16:07:00,31.1,27.8,30.35,South,181,0.0,3.1,88,0.00,,CLR,0.00,VWS V14.01,2013-01-26 22:07:00,
2013-01-26 16:12:00,30.9,27.6,30.35,SE,137,0.0,0.0,88,0.00,,CLR,0.00,VWS V14.01,2013-01-26 22:12:00,
2013-01-26 16:17:00,30.9,27.6,30.35,South,171,2.7,5.4,88,0.00,,CLR,0.00,VWS V14.01,2013-01-26 22:17:00,
2013-01-26 16:22:00,30.6,27.3,30.35,South,176,0.0,4.5,88,0.00,,CLR,0.00,VWS V14.01,2013-01-26 22:22:00,
2013-01-26 16:27:00,30.4,27.1,30.35,SSE,155,0.0,0.0,88,0.00,,CLR,0.00,VWS V14.01,2013-01-26 22:27:00,
2013-01-26 16:33:00,30.4,27.1,30.35,SSW,200,0.0,0.0,88,0.00,,CLR,0.00,VWS V14.01,2013-01-26 22:33:00,
2013-01-26 16:38:00,30.2,26.9,30.35,South,189,0.0,0.0,88,0.00,,CLR,0.00,VWS V14.01,2013-01-26 22:38:00,
2013-01-26 16:43:00,30.2,26.9,30.35,South,169,0.0,0.0,88,0.00,,CLR,0.00,VWS V14.01,2013-01-26 22:43:00,
2013-01-26 16:48:00,30.0,26.8,30.35,SW,218,0.0,0.0,88,0.00,,CLR,0.00,VWS V14.01,2013-01-26 22:48:00,
2013-01-26 16:53:00,30.0,26.8,30.35,SSW,192,0.0,0.0,88,0.00,,CLR,0.00,VWS V14.01,2013-01-26 22:53:00,
2013-01-26 16:58:00,29.8,26.6,30.35,South,190,0.0,0.0,88,0.00,,CLR,0.00,VWS V14.01,2013-01-26 22:58:00,
2013-01-26 17:03:00,29.7,26.4,30.35,SSE,155,0.0,3.6,88,0.00,,CLR,0.00,VWS V14.01,2013-01-26 23:03:00,
2013-01-26 17:08:00,29.5,26.2,30.35,SE,140,0.0,0.0,88,0.00,,CLR,0.00,VWS V14.01,2013-01-26 23:08:00,
2013-01-26 17:13:00,29.5,26.2,30.35,SE,126,0.0,0.0,88,0.00,,CLR,0.00,VWS V14.01,2013-01-26 23:13:00,
2013-01-26 17:18:00,29.3,26.1,30.35,ESE,113,0.0,0.0,88,0.00,,CLR,0.00,VWS V14.01,2013-01-26 23:18:00,
2013-01-26 17:23:00,28.8,25.5,30.35,ENE,72,0.0,0.0,88,0.00,,CLR,0.00,VWS V14.01,2013-01-26 23:23:00,
2013-01-26 17:28:00,28.4,26.1,30.35,East,87,0.0,0.0,91,0.00,,CLR,0.00,VWS V14.01,2013-01-26 23:28:00,
2013-01-26 17:36:00,27.9,25.6,30.35,East,90,2.2,3.1,91,0.00,,CLR,0.00,VWS V14.01,2013-01-26 23:36:00,
2013-01-26 17:41:00,27.5,22.3,30.35,East,88,0.0,4.0,80,0.00,,CLR,0.00,VWS V14.01,2013-01-26 23:41:00,
2013-01-26 17:46:00,27.1,22.0,30.35,East,81,0.0,2.7,80,0.00,,CLR,0.00,VWS V14.01,2013-01-26 23:46:00,
2013-01-26 17:51:00,27.0,21.8,30.35,ESE,112,0.0,0.0,80,0.00,,CLR,0.00,VWS V14.01,2013-01-26 23:51:00,
2013-01-26 17:57:00,27.0,21.8,30.35,East,95,0.0,0.0,80,0.00,,CLR,0.00,VWS V14.01,2013-01-26 23:57:00,
2013-01-26 18:02:00,26.8,21.6,30.32,ESE,119,0.0,0.0,80,0.00,,CLR,0.00,VWS V14.01,2013-01-27 00:02:00,
2013-01-26 18:07:00,26.6,22.4,30.32,SE,129,3.1,5.4,84,0.00,,CLR,0.00,VWS V14.01,2013-01-27 00:07:00,
2013-01-26 18:12:00,27.0,21.8,30.32,SE,130,0.0,0.0,80,0.00,,CLR,0.00,VWS V14.01,2013-01-27 00:12:00,
2013-01-26 18:17:00,27.0,21.8,30.35,ESE,107,0.0,0.0,80,0.00,,CLR,0.00,VWS V14.01,2013-01-27 00:17:00,
2013-01-26 18:22:00,27.3,22.1,30.35,ESE,104,0.0,3.6,80,0.00,,CLR,0.00,VWS V14.01,2013-01-27 00:22:00,
2013-01-26 18:27:00,27.3,22.1,30.35,ESE,123,0.0,0.0,80,0.00,,CLR,0.00,VWS V14.01,2013-01-27 00:27:00,
2013-01-26 18:32:00,27.3,22.1,30.32,ESE,119,0.0,0.0,80,0.00,,CLR,0.00,VWS V14.01,2013-01-27 00:32:00,
2013-01-26 18:37:00,27.3,22.1,30.32,ESE,119,0.0,0.0,80,0.00,,CLR,0.00,VWS V14.01,2013-01-27 00:37:00,
2013-01-26 18:42:00,27.1,22.0,30.32,East,100,0.0,0.0,80,0.00,,CLR,0.00,VWS V14.01,2013-01-27 00:42:00,
2013-01-26 18:47:00,27.0,21.8,30.35,ENE,70,0.0,0.0,80,0.00,,CLR,0.00,VWS V14.01,2013-01-27 00:47:00,
2013-01-26 18:52:00,27.0,21.8,30.35,ENE,76,0.0,0.0,80,0.00,,CLR,0.00,VWS V14.01,2013-01-27 00:52:00,
2013-01-26 18:58:00,26.8,21.6,30.35,ESE,113,0.0,0.0,80,0.00,,CLR,0.00,VWS V14.01,2013-01-27 00:58:00,
2013-01-26 19:03:00,27.0,21.8,30.35,East,100,0.0,3.1,80,0.00,,CLR,0.00,VWS V14.01,2013-01-27 01:03:00,
2013-01-26 19:08:00,27.0,21.8,30.35,ESE,118,0.0,0.0,80,0.00,,CLR,0.00,VWS V14.01,2013-01-27 01:08:00,
2013-01-26 19:13:00,27.1,22.0,30.35,ESE,118,0.0,0.0,80,0.00,,CLR,0.00,VWS V14.01,2013-01-27 01:13:00,
2013-01-26 19:18:00,27.1,22.0,30.35,East,95,0.0,0.0,80,0.00,,CLR,0.00,VWS V14.01,2013-01-27 01:18:00,
2013-01-26 19:23:00,27.3,22.1,30.35,ESE,112,0.0,0.0,80,0.00,,CLR,0.00,VWS V14.01,2013-01-27 01:23:00,
2013-01-26 19:28:00,27.5,22.3,30.35,ESE,121,0.0,0.0,80,0.00,,CLR,0.00,VWS V14.01,2013-01-27 01:28:00,
2013-01-26 19:33:00,27.5,22.3,30.35,ESE,119,0.0,0.0,80,0.00,,CLR,0.00,VWS V14.01,2013-01-27 01:33:00,
2013-01-26 19:38:00,27.5,22.3,30.35,ESE,108,0.0,3.1,80,0.00,,CLR,0.00,VWS V14.01,2013-01-27 01:38:00,
2013-01-26 19:43:00,27.5,22.3,30.35,SE,124,0.0,0.0,80,0.00,,CLR,0.00,VWS V14.01,2013-01-27 01:43:00,
2013-01-26 19:48:00,27.5,22.3,30.35,South,171,0.0,0.0,80,0.00,,CLR,0.00,VWS V14.01,2013-01-27 01:48:00,
2013-01-26 19:53:00,27.5,22.3,30.35,SE,126,0.0,4.0,80,0.00,,CLR,0.00,VWS V14.01,2013-01-27 01:53:00,
2013-01-26 19:59:00,27.7,22.5,30.35,ESE,117,0.0,4.0,80,0.00,,CLR,0.00,VWS V14.01,2013-01-27 01:59:00,
2013-01-26 20:04:00,27.7,25.4,30.35,ESE,103,0.0,0.0,91,0.00,,CLR,0.00,VWS V14.01,2013-01-27 02:04:00,
2013-01-26 20:09:00,27.7,25.4,30.35,ESE,122,3.1,4.0,91,0.00,,CLR,0.00,VWS V14.01,2013-01-27 02:09:00,
2013-01-26 20:14:00,27.7,25.4,30.35,ESE,110,2.7,4.0,91,0.00,,CLR,0.00,VWS V14.01,2013-01-27 02:14:00,
2013-01-26 20:19:00,27.7,25.4,30.35,ESE,112,0.0,3.1,91,0.00,,CLR,0.00,VWS V14.01,2013-01-27 02:19:00,
2013-01-26 20:24:00,27.7,25.4,30.35,SE,130,0.0,4.0,91,0.00,,CLR,0.00,VWS V14.01,2013-01-27 02:24:00,
2013-01-26 20:29:00,27.7,25.4,30.35,SE,138,2.7,3.1,91,0.00,,CLR,0.00,VWS V14.01,2013-01-27 02:29:00,
2013-01-26 20:34:00,27.7,25.4,30.35,SSE,152,0.0,3.6,91,0.00,,CLR,0.00,VWS V14.01,2013-01-27 02:34:00,
2013-01-26 20:39:00,27.9,25.6,30.35,ESE,122,0.0,4.0,91,0.00,,SCT120,0.00,VWS V14.01,2013-01-27 02:39:00,
2013-01-26 20:44:00,27.9,25.6,30.35,ESE,123,0.0,2.7,91,0.00,,SCT120,0.00,VWS V14.01,2013-01-27 02:44:00,
2013-01-26 20:49:00,27.9,25.6,30.35,SE,136,0.0,0.0,91,0.00,,SCT120,0.00,VWS V14.01,2013-01-27 02:49:00,
2013-01-26 20:55:00,27.9,25.6,30.35,SE,143,3.1,4.0,91,0.00,,SCT120,0.00,VWS V14.01,2013-01-27 02:55:00,
2013-01-26 21:00:00,28.0,25.8,30.35,ESE,122,2.7,4.0,91,0.00,,SCT120,0.00,VWS V14.01,2013-01-27 03:00:00,
2013-01-26 21:05:00,28.0,25.8,30.35,ESE,109,4.9,4.9,91,0.00,,SCT120,0.00,VWS V14.01,2013-01-27 03:05:00,
2013-01-26 21:10:00,28.0,25.8,30.35,SE,142,2.7,2.7,91,0.00,,CLR,0.00,VWS V14.01,2013-01-27 03:10:00,
2013-01-26 21:15:00,28.0,25.8,30.35,SSE,147,3.1,3.6,91,0.00,,CLR,0.00,VWS V14.01,2013-01-27 03:15:00,
2013-01-26 21:20:00,28.0,25.8,30.35,East,100,3.1,3.1,91,0.00,,CLR,0.00,VWS V14.01,2013-01-27 03:20:00,
2013-01-26 21:25:00,28.0,25.8,30.35,SSE,158,0.0,0.0,91,0.00,,CLR,0.00,VWS V14.01,2013-01-27 03:25:00,
2013-01-26 21:30:00,28.0,25.8,30.35,SE,135,3.1,3.1,91,0.00,,CLR,0.00,VWS V14.01,2013-01-27 03:30:00,
2013-01-26 21:35:00,28.2,25.9,30.35,SSE,161,3.1,3.1,91,0.00,,CLR,0.00,VWS V14.01,2013-01-27 03:35:00,
2013-01-26 21:40:00,28.2,25.9,30.35,SSE,161,3.6,4.9,91,0.00,,CLR,0.00,VWS V14.01,2013-01-27 03:40:00,
2013-01-26 21:45:00,28.2,25.9,30.35,SSE,163,3.1,3.1,91,0.00,,CLR,0.00,VWS V14.01,2013-01-27 03:45:00,
2013-01-26 21:50:00,28.2,25.9,30.35,SE,142,0.0,0.0,91,0.00,,CLR,0.00,VWS V14.01,2013-01-27 03:50:00,
2013-01-26 21:55:00,28.2,25.9,30.35,SSE,167,3.1,3.1,91,0.00,,CLR,0.00,VWS V14.01,2013-01-27 03:55:00,
2013-01-26 22:00:00,28.0,25.8,30.35,SSE,159,3.1,4.0,91,0.00,,CLR,0.00,VWS V14.01,2013-01-27 04:00:00,
2013-01-26 22:05:00,28.0,25.8,30.35,North,0,2.7,3.6,91,0.00,,CLR,0.00,VWS V14.01,2013-01-27 04:05:00,
2013-01-26 22:11:00,28.0,25.8,30.35,SSE,165,4.5,4.5,91,0.00,,CLR,0.00,VWS V14.01,2013-01-27 04:11:00,
2013-01-26 22:16:00,28.0,25.8,30.35,SSE,158,5.8,5.8,91,0.00,,CLR,0.00,VWS V14.01,2013-01-27 04:16:00,
2013-01-26 22:21:00,28.2,25.9,30.35,South,170,4.9,5.4,91,0.00,,CLR,0.00,VWS V14.01,2013-01-27 04:21:00,
2013-01-26 22:26:00,28.2,25.9,30.35,South,174,3.6,4.0,91,0.00,,CLR,0.00,VWS V14.01,2013-01-27 04:26:00,
2013-01-26 22:31:00,28.2,25.9,30.35,South,175,3.1,7.6,91,0.00,,CLR,0.00,VWS V14.01,2013-01-27 04:31:00,
2013-01-26 22:36:00,28.2,25.9,30.35,South,178,5.8,8.3,91,0.00,,CLR,0.00,VWS V14.01,2013-01-27 04:36:00,
2013-01-26 22:41:00,28.2,25.9,30.35,South,186,5.4,8.3,91,0.00,,CLR,0.00,VWS V14.01,2013-01-27 04:41:00,
2013-01-26 22:46:00,28.2,25.9,30.35,SSE,166,4.0,4.0,91,0.00,,CLR,0.00,VWS V14.01,2013-01-27 04:46:00,
2013-01-26 22:51:00,28.0,25.8,30.35,SE,137,6.3,6.3,91,0.00,,CLR,0.00,VWS V14.01,2013-01-27 04:51:00,
2013-01-26 22:56:00,28.0,25.8,30.35,South,187,4.0,6.3,91,0.00,,CLR,0.00,VWS V14.01,2013-01-27 04:56:00,
2013-01-26 23:00:00,28.0,25.8,30.35,SSE,162,2.7,8.7,91,0.00,,CLR,0.00,VWS V14.01,2013-01-27 05:00:00,
2013-01-26 23:02:00,28.0,25.8,30.35,South,185,5.4,5.4,91,0.00,,CLR,0.00,VWS V14.01,2013-01-27 05:02:00,
2013-01-26 23:05:00,28.0,25.8,30.35,South,172,2.7,5.8,91,0.00,,CLR,0.00,VWS V14.01,2013-01-27 05:05:00,
2013-01-26 23:10:00,28.0,25.8,30.35,South,182,2.7,8.3,91,0.00,,CLR,0.00,VWS V14.01,2013-01-27 05:10:00,
2013-01-26 23:15:00,28.0,25.8,30.35,SSE,165,4.9,8.3,91,0.00,,CLR,0.00,VWS V14.01,2013-01-27 05:15:00,
2013-01-26 23:20:00,28.0,25.8,30.35,South,178,5.4,5.4,91,0.00,,CLR,0.00,VWS V14.01,2013-01-27 05:20:00,
2013-01-26 23:25:00,28.0,25.8,30.35,SSE,157,6.7,6.7,91,0.00,,CLR,0.00,VWS V14.01,2013-01-27 05:25:00,
2013-01-26 23:30:00,28.0,25.8,30.35,SSE,166,3.6,4.9,91,0.00,,CLR,0.00,VWS V14.01,2013-01-27 05:30:00,
2013-01-26 23:35:00,28.0,25.8,30.35,SE,130,3.1,4.0,91,0.00,,CLR,0.00,VWS V14.01,2013-01-27 05:35:00,
2013-01-26 23:40:00,28.0,25.8,30.35,SSE,151,4.0,4.0,91,0.00,,CLR,0.00,VWS V14.01,2013-01-27 05:40:00,
2013-01-26 23:45:00,28.0,25.8,30.35,SSE,147,4.0,4.0,91,0.00,,CLR,0.00,VWS V14.01,2013-01-27 05:45:00,
2013-01-26 23:50:00,28.0,25.8,30.35,SSE,147,4.0,4.0,91,0.00,,CLR,0.00,VWS V14.01,2013-01-27 05:50:00,
2013-01-26 23:55:00,28.0,25.8,30.35,SSE,162,4.0,4.0,91,0.00,,CLR,0.00,VWS V14.01,2013-01-27 05:55:00,